Location: ????
(32.1228°N, 34.8377°E)
Time: 01:30:27
(UTC+00:00)

Meteor 1-18 Rocket - Pass Details

Date: 21 September 2020
Orbit: 837 x 908 km, 81.2° (Epoch: 21 October)

Event Time Altitude Azimuth Distance (km) Brightness Sun altitude
Rises 02:55:03 0° 190° (S) 3,383 7.2 -7.9°
Reaches altitude 10° 02:57:27 10° 191° (SSW) 2,447 6.4 -7.4°
Maximum altitude 03:02:59 78° 278° (W) 859 4.2 -6.2°
Drops below altitude 10° 03:08:33 10° 5° (N) 2,458 6.7 -5.0°
Sets 03:10:59 0° 7° (N) 3,400 7.5 -4.5°
